Regional Weather Roundup
Issued by NWS Northern Indiana

Home | Current Version | Previous Version | Graphics & Text | Print | Product List | Glossary On
Versions: 1 2 3 4 5 6 7 8 9 10 11 12 13 14 15 16 17 18 19 20 21 22 23 24 25 26 27 28 29 30 31 32 33 34 35 36 37 38 39 40 41 42 43 44 45 46 47 48 49 50
000
ASUS43 KIWX 020300
RWRIWX

KIWX WEATHER ROUNDUP
NATIONAL WEATHER SERVICE NORTHERN INDIANA
1100 PM EDT TUE SEP 01 2015

NOTE: "FAIR" INDICATES FEW OR NO CLOUDS BELOW 12,000 FEET WITH NO
SIGNIFICANT WEATHER AND/OR OBSTRUCTIONS TO VISIBILITY.

* THESE STATIONS ARE NOT UNDER NWS QUALITY CONTROL. THEY ALSO MAY NOT
  REPORT WEATHER SUCH AS PRECIPITATION OR FOG.

INZ001>027-020400-
NORTHERN INDIANA

CITY           SKY/WX    TMP DP  RH WIND       PRES   REMARKS
GARY*          PTCLDY    79  70  73 S8        30.05S
SOUTH BEND     CLEAR     75  70  84 SW8       30.08R
GOSHEN         CLEAR     74  68  81 SW7       30.08R
MONTICELLO*    CLEAR     74  70  85 S3        30.08R
ANGOLA*        CLEAR     73  70  88 CALM      30.09R
FORT WAYNE     CLEAR     72  68  87 SW6       30.10R
PERU/GRISSOM   CLEAR     69  66  89 SW8       30.09R

$$
INZ028>050-020400-
CENTRAL INDIANA

CITY           SKY/WX    TMP DP  RH WIND       PRES   REMARKS
LAFAYETTE      CLEAR     73  67  81 CALM      30.08S
KOKOMO*        CLEAR     72  37  28 SW6       30.10S
MUNCIE*        CLEAR     73  67  81 SW6       30.11R
INDIANAPOLIS   CLEAR     75  66  73 SW5       30.10R

$$
MIZ043>046-050>051-056>058-064>065-071>073-077>080-020400-
SOUTHWEST LOWER MICHIGAN

CITY           SKY/WX    TMP DP  RH WIND       PRES   REMARKS
BATTLE CREEK   CLEAR     74  68  81 SW6       30.07S
BENTON HARBOR  CLEAR     77  70  79 S6        30.05R
COLDWATER*     CLEAR     74  72  92 CALM      30.08S
HILLSDALE*     CLEAR     74  73  96 SW5       30.09S
HOLLAND        CLEAR     75  70  84 S5        30.04S
GRAND RAPIDS   CLEAR     74  72  93 S6        30.05R FOG
KALAMAZOO      CLEAR     75  69  81 S6        30.07R
STURGIS*       CLEAR     72  70  94 CALM      30.08R
THREE RIVERS*  FAIR      72  70  93 S3        30.07S

$$
OHZ001>008-015>018-024>025-020400-
NORTHWEST OHIO

CITY           SKY/WX    TMP DP  RH WIND       PRES   REMARKS
DEFIANCE       CLEAR     73  67  81 SW5       30.08S
FINDLAY        CLEAR     71  67  87 S5        30.09R
TOLEDO EXPRESS CLEAR     75  69  81 SW5       30.07R
TOLEDO METCALF CLEAR     76  67  73 SW6       30.08R
LIMA           PTCLDY    71  68  90 S5        30.11R

$$
AND FOR LAKE MICHIGAN COASTAL AND OPEN LAKE BUOY OBSERVATIONS

STATION/POSITION TEMP    WIND        PRES    VSBY  WAVE
                 AIR SEA DIR/SP/G                  HT/PER
                 (F)     (DEG/KT/KT) (MB)    (MI)  (FT/S)
CALUMET HARBOR    80     180/  9/ 12   N/A
MICHIGAN CITY     78     170/ 14/ 16   N/A
BURNS HARBOR      78     190/ 12/ 16 1017.6R
SAINT JOSEPH      79     140/  2/  6 1017.6R
SOUTH LAKE BUOY   74 70  190/ 12/ 14 1015.8R         1/ 4
4 MI NW BRIDGMAN  76 73  220/  8/  8   N/A           1
MICHIGAN CITY     77 73  210/ 10/ 12   N/A           1

$$
&&



USA.gov is the U.S. government's official web portal to all federal, state and local government web resources and services.